Regional Weather Roundup
Issued by NWS

Home | Current Version | Previous Version | Text Only | Print | Product List | Glossary On
Versions: 1 2 3 4 5 6 7 8 9 10 11 12 13 14 15 16 17 18 19 20 21 22 23 24 25 26 27
000
ASUS46 KSEW 240810
RWRWA

WASHINGTON REGIONAL WEATHER ROUNDUP
NATIONAL WEATHER SERVICE SEATTLE WA
100 AM PDT TUE OCT 24 2017

NOTE:"FAIR" INDICATES FEW OR NO CLOUDS BELOW 12,000 FEET WITH NO
SIGNIFICANT WEATHER AND/OR OBSTRUCTIONS TO VISIBILITY.

WAZ507-509-555>559-240900-
SEATTLE, TACOMA, EVERETT, AND VICINITY

CITY           SKY/WX    TMP DP  RH WIND       PRES   REMARKS
EVERETT        CLEAR     50  47  89 N6        30.63S
BOEING FIELD   CLEAR     49  46  90 CALM      30.61S
RENTON         CLEAR     49  49 100 N3        30.61S
SEATAC AIRPORT CLEAR     52  48  86 NE9       30.62R
JBLM-MCCHORD   CLEAR     42  42 100 CALM      30.60S FOG
PUYALLUP       FAIR      43  43 100 CALM      30.60R
BREMERTON      CLEAR     51  47  86 NE12      30.60F
JBLM-FT LEWIS  CLEAR     44  44 100 CALM      30.60R
TACOMA NARROWS CLEAR     50  46  86 N6        30.60F
$$

WAZ001-503-506-510-514-515-240900-
NORTH INTERIOR

CITY           SKY/WX    TMP DP  RH WIND       PRES   REMARKS
BELLINGHAM     CLEAR     48  45  89 NE6       30.64F
FRIDAY HARBOR  CLEAR     49  47  93 CALM      30.65F
EASTSOUND      CLEAR     54  46  76 CALM      30.65F
PORT ANGELES   CLEAR     43  42  97 CALM      30.66S
EDIZ HOOK      FAIR      47  46  95 S5        30.66S
PORT TOWNSEND  FAIR      43  43 100 CALM      30.65F FOG
NAS WHIDBEY    PTCLDY    51  44  77 CALM      30.68S
ARLINGTON      CLEAR     44  43  96 NW5       30.64S
BURLINGTON     CLEAR     50  46  87 NE8       30.65S
$$

WAZ020-022-039-040-504-511-512-240900-
SOUTHWEST INTERIOR

CITY           SKY/WX    TMP DP  RH WIND       PRES   REMARKS
SHELTON        PTCLDY    41  38  89 CALM      30.58R
OLYMPIA        CLEAR     41  41 100 CALM      30.60R
CHEHALIS       FOG       45  45 100 CALM      30.59S VSB<1/4
KELSO          FOG       47  46  97 CALM      30.57R VSB 1/4
VANCOUVER      CLEAR     46  46 100 CALM      30.53S
SCAPPOOSE, OR  CLEAR     46  46 100 N3        30.53F
PORTLAND, OR   CLEAR     48  48 100 CALM      30.53F
$$

WAZ021-516-517-240900-
WASHINGTON COAST

CITY           SKY/WX    TMP DP  RH WIND       PRES   REMARKS
FORKS          CLOUDY    53  51  93 CALM      30.60F
HOQUIAM        CLEAR     48  47  96 E6        30.57F
ASTORIA, OR    CLEAR     48  47  96 CALM      30.52S
$$

WAZ019-023-024-040-567>569-240900-
CASCADE MOUNTAINS AND COLUMBIA GORGE

CITY           SKY/WX    TMP DP  RH WIND       PRES   REMARKS
STAMPEDE PASS  CLEAR     39  37  92 NE3       30.65F
TROUTDALE, OR  CLEAR     59  46  62 E15       30.51F
HOOD RIVER, OR SUNNY     43  41  93 S3        30.66F
THE DALLES, OR CLEAR     44  42  93 CALM      30.66F
$$

WAZ026-027-041>044-520-521-240900-
EAST SLOPES

CITY           SKY/WX    TMP DP  RH WIND       PRES   REMARKS
OMAK           PTCLDY    39  35  86 W3        30.69R
WENATCHEE      CLEAR     42  38  85 NW5       30.68F
ELLENSBURG     CLEAR     36  32  85 CALM      30.67F
YAKIMA         CLEAR     38  35  89 W5        30.69S
SUNNYSIDE ARPT SUNNY     38  36  93 CALM      30.68F
YAKIMA TC      FAIR      38  33  82 CALM      30.66S
$$

WAZ028-034-035-240900-
COLUMBIA BASIN

CITY           SKY/WX    TMP DP  RH WIND       PRES   REMARKS
EPHRATA        CLEAR     41  33  73 N5        30.67F
MOSES LAKE     CLEAR     39  35  86 N8        30.68F
PASCO          CLEAR     41  39  93 NW3       30.68F
RICHLAND ARPT  SUNNY     42  41  96 W3        30.67F
HERMISTON, OR  CLEAR     45  42  89 E5        30.65F
$$

WAZ036>038-240900-
NORTHEAST WASHINGTON

CITY           SKY/WX    TMP DP  RH WIND       PRES   REMARKS
SPOKANE GEIGER CLEAR     40  39  97 E5        30.69S
SPOKANE FELTS  CLEAR     41  38  89 CALM      30.71S
FAIRCHILD AFB  CLEAR     39  39  99 NE7       30.68S
COEURDALENE,ID CLEAR     34  33  96 NE5       30.71F
DEER PARK      CLEAR     32  31  96 CALM      30.70F
$$

WAZ029>033-240900-
SOUTHEAST WASHINGTON

CITY           SKY/WX    TMP DP  RH WIND       PRES   REMARKS
PULLMAN        CLEAR     44  36  73 E12       30.69F
LEWISTON, ID   CLEAR     44  40  85 SE7       30.70F
WALLA WALLA    CLEAR     47  38  71 CALM      30.66F
PENDLETON, OR  CLEAR     44  40  85 SE7       30.65F
$$




USA.gov is the U.S. government's official web portal to all federal, state and local government web resources and services.